Home   Weather   Waidhofen an der Ybbs   Past weeks

Flag for Austria Past Weather in Waidhofen an der Ybbs, Lower Austria, Austria — Yesterday and Last 2 Weeks

Now
67 °F

Partly sunny.


Feels Like: 67 °F
Forecast: 52 / 68 °F
Wind: 5 mph from West

Location: Amstetten

Current Time: Jun 29, 2017 at 9:23:32 am

Latest Report: Jun 29, 2017 at 8:00 am


Visibility: N/A

Pressure: 29.41 "Hg

Humidity: 70%

Dew Point: 57 °F

Location of Waidhofen an der YbbsLocation

Past Weather in Waidhofen an der Ybbs — Graph

°F

Waidhofen an der Ybbs Temperature Yesterday

Maximum temperature yesterday: 89 °F (at 1:00 pm)
Minimum temperature yesterday: 62 °F (at 6:00 am)
Average temperature yesterday: 74 °F

High & Low Weather Summary for the Past Weeks

 TemperatureHumidityPressure
High92 °F (Jun 22, 6:00 pm)100% (Jun 28, 2:00 am)30.28 "Hg (Jun 28, 2:00 am)
Low49 °F (Jun 19, 4:00 am)20% (Jun 16, 6:00 pm)29.32 "Hg (Jun 29, 3:00 am)
Average72 °F61%29.94 "Hg
* Reported Jun 14 8:00 am — Jun 29 8:00 am, Waidhofen an der Ybbs. Weather by CustomWeather, © 2017

Note: Actual official high and low records may vary slightly from our data, if they occured in-between our weather recording intervals... More about our weather records

Advertising

Waidhofen an der Ybbs Weather History for the Previous 24 Hours

Scroll right to see more
 ConditionsComfort  
Time TempWeatherWind HumidityBarometerVisibility
8:00 am
Thu, Jun 29
67 °FPartly sunny.5 mph70%29.41 "HgN/A
7:00 am65 °FMild.3 mph77%29.41 "HgN/A
6:00 am64 °FMild.2 mph87%29.38 "HgN/A
5:00 am65 °FMild.3 mph80%29.35 "HgN/A
4:00 am66 °FMild.1 mph80%29.35 "HgN/A
3:00 am65 °FMild.1 mph88%29.32 "HgN/A
2:00 am67 °FMild.2 mph79%29.35 "HgN/A
1:00 am65 °FMild.No wind82%29.38 "HgN/A
12:00 am68 °FMild.2 mph72%29.38 "HgN/A
11:00 pm
Wed, Jun 28
69 °FMild.1 mph69%29.41 "HgN/A
10:00 pm73 °FMild.2 mph66%29.41 "HgN/A
9:00 pm75 °FMild.2 mph67%29.38 "HgN/A
8:00 pm78 °FWarm.No wind67%29.41 "HgN/A
7:00 pm81 °FWarm.1 mph49%29.41 "HgN/A
6:00 pm82 °FWarm.2 mph48%29.41 "HgN/A
5:00 pm83 °FWarm.3 mph44%29.44 "HgN/A
4:00 pm84 °FWarm.3 mph47%29.47 "HgN/A
3:00 pm86 °FWarm.3 mph45%29.47 "HgN/A
2:00 pm84 °FWarm.5 mph44%29.47 "HgN/A
1:00 pm89 °FHot.1 mph37%29.47 "HgN/A
12:00 pm85 °FWarm.2 mph45%29.47 "HgN/A
11:00 am82 °FWarm.3 mph55%29.50 "HgN/A
10:00 am76 °FMild.5 mph67%29.50 "HgN/A
9:00 am71 °FMild.N/A81%29.55 "HgN/A
Weather by CustomWeather, © 2017

See weather overviewHow to use our weather pages